User: anonymous   Login
Location: Unspecified
(0.0000°N, 0.0000°E)
Time: 13:34:05
(UTC+00:00)
Language:

Cosmos 1624 - Orbit

View from above orbital plane
View from above orbital plane
View from above satellite
View from above satellite

Ground track
Ground track

The orbit data is extracted from the following two-line orbital elements,

1 15482U 85006A   18115.89752816 -.00000001 +00000-0 +90605-5 0  9998
2 15482 074.0432 227.6289 0013570 119.4008 010.7702 14.32982761738139
Epoch (UTC): 25 April 2018 21:32:26
Eccentricity: 0.0013570
inclination: 74.0432°
perigee height: 772 km
apogee height: 791 km
right ascension of ascending node: 227.6289°
argument of perigee: 119.4008°
revolutions per day: 14.32982761
mean anomaly at epoch: 10.7702°
orbit number at epoch: 73813

The dashed part of the orbit path shows where the satellite is in the earth's shadow,  

DLR